Flag for U.S.A. Weather past 2 weeks in Cocoa Beach, Florida, U.S.A.

Now
59 °F

Clear.


Feels Like: 59 °F
Forecast: 52 / 69 °F
Wind: 2 mph from Northwest

Location: Cocoa / Patrick Air Force Base

Current Time: Dec 19, 2014 at 1:38:49 AM

Latest Report: Dec 19, 2014 at 12:58 AM


Visibility: 10 mi

Pressure: 30.12 "Hg

Humidity: 86%

Dew point: 55 °F

Location of Cocoa BeachLocation

Historic Weather in Cocoa Beach — Graph

°F

Cocoa Beach temperature yesterday

Maximum temperature yesterday: 68 °F (at 1:58 PM)
Minimum temperature yesterday: 52 °F (at 6:58 AM)
Average temperature yesterday: 59 °F

Past Weeks' High & Low Weather Summary

 TemperatureHumidityPressure
High77 °F (Dec 5, 11:58 AM)100% (Dec 8, 1:03 AM)30.27 "Hg (Dec 8, 1:03 AM)
Low47 °F (Dec 11, 6:58 AM)25% (Dec 14, 11:58 AM)29.99 "Hg (Dec 9, 2:58 PM)
Average62 °F77%30.14 "Hg
* Reported Dec 3 11:58 PM — Dec 18 11:58 PM, Cocoa Beach, Weather by CustomWeather, © 2014

Note: Actual official high and low records may vary slightly from our data, if they occured in-between our weather recording intervals... More about our weather records

Advertising

Cocoa Beach weather history for previous 24 hours

 ConditionsComfort  
Time TempWeatherWind HumidityBarometerVisibility
11:58 PM
Dec 18
60 °FClear.7 mph90%30.13 "Hg10 mi
10:58 PM60 °FClear.2 mph88%30.13 "Hg10 mi
9:58 PM60 °FClear.1 mph80%30.12 "Hg10 mi
8:58 PM58 °FClear.2 mph78%30.13 "Hg10 mi
7:58 PM60 °FClear.No wind73%30.12 "Hg10 mi
6:58 PM60 °FClear.5 mph70%30.13 "Hg10 mi
5:58 PM62 °FClear.6 mph65%30.11 "Hg10 mi
4:58 PM65 °FSunny.6 mph62%30.10 "Hg10 mi
3:58 PM65 °FSunny.6 mph62%30.10 "Hg10 mi
2:58 PM67 °FSunny.6 mph57%30.10 "Hg10 mi
1:58 PM68 °FSunny.6 mph50%30.12 "Hg10 mi
12:58 PM66 °FSunny.5 mph55%30.15 "Hg10 mi
11:58 AM64 °FSunny.5 mph64%30.17 "Hg10 mi
10:58 AM60 °FSunny.5 mph70%30.19 "Hg10 mi
9:58 AM58 °FSunny.6 mph79%30.19 "Hg10 mi
8:58 AM54 °FSunny.8 mph85%30.18 "Hg10 mi
7:58 AM52 °FSunny.7 mph88%30.16 "Hg10 mi
6:58 AM52 °FClear.7 mph87%30.14 "Hg10 mi
5:58 AM52 °FClear.7 mph85%30.13 "Hg10 mi
4:58 AM54 °FClear.12 mph79%30.14 "Hg10 mi
3:58 AM55 °FClear.9 mph78%30.13 "Hg10 mi
2:58 AM56 °FClear.9 mph78%30.13 "Hg10 mi
1:58 AM57 °FClear.7 mph77%30.14 "Hg10 mi
Weather by CustomWeather, © 2014

See weather overviewHow to use our weather pages